Simultaneous Nadir Overpasses (SNOs) Predictions

Prediction of SNOs between METOP-C and LANDSAT-8 Satellite Orbit:

Table of predicted SNOs for the next 14.0 days since TLE Epoch: 4/29/2023
Index Date (METOP-C) Time (METOP-C) Lat,Lon (METOP-C) SZA (METOP-C ) Date (LANDSAT-8) Time (LANDSAT-8) Lat,Lon (LANDSAT-8) SZA (LANDSAT-8 ) Distance(km) Time Diff (sec)
1 04/30/2023 13:23:10 81.12, 18.41 68.44 04/30/2023 13:23:12 81.12, 18.35 68.43 1.11 2
2 04/30/2023 14:13:47 -81.14,-173.55 111.49 04/30/2023 14:12:37 -81.14,-173.71 111.54 2.79 70
3 05/03/2023 08:06:51 -81.09, -83.25 112.49 05/03/2023 08:07:59 -81.10, -83.10 112.44 2.79 68
4 05/03/2023 08:57:30 81.13, 85.07 67.64 05/03/2023 08:57:24 81.13, 84.95 67.62 2.13 6
5 05/06/2023 03:41:12 -81.10, -16.65 113.26 05/06/2023 03:42:12 -81.10, -16.66 113.24 0.14 60
6 05/06/2023 04:31:52 81.12, 151.28 66.81 05/06/2023 04:31:37 81.13, 151.36 66.82 1.41 15
7 05/08/2023 23:15:34 -81.09, 49.51 114.06 05/08/2023 23:16:25 -81.09, 49.60 114.03 1.48 51
8 05/09/2023 00:06:13 81.13,-142.20 66.06 05/09/2023 00:05:49 81.14,-142.04 66.07 2.93 24
9 05/11/2023 18:49:53 -81.11, 116.36 114.73 05/11/2023 18:50:35 -81.11, 116.39 114.71 0.75 42



Historial Predications of SNOs between METOP-C and LANDSAT-8
